Theta_e
325 327 329 329 331 334 335 337 339 339 339 339 339 341 342 341 341 340 338 338 339 340 343 344 346 348 350 350 351 351 351 352 352
324 327 328 328 331 333 335 336 338 340 339 340 340 340 341 342 343 341 339 339 340 340 343 345 347 349 349 349 350 351 351 349 350
324 327 328 328 330 333 336 336 337 339 342 341 340 341 342 342 343 344 343 341 339 341 344 347 348 348 350 351 351 352 350 348 350
324 326 328 329 331 334 336 336 336 337 338 342 342 342 343 344 343 344 343 343 343 344 346 347 347 349 350 350 351 352 350 349 350
323 328 329 330 332 333 335 334 335 336 336 338 344 345 343 344 345 344 343 344 345 348 347 347 346 345 344 346 347 348 348 347 351
323 327 329 330 330 331 332 334 335 336 337 338 343 344 344 344 344 345 344 344 345 347 347 347 346 345 343 342 343 345 348 348 347
321 325 328 329 328 329 331 333 334 336 338 339 341 343 343 342 343 344 345 346 346 346 347 347 345 344 343 343 343 343 344 347 348
322 324 325 326 327 328 329 331 332 335 337 339 340 339 340 341 341 341 341 343 344 346 347 347 347 345 343 343 342 341 341 346 349
323 324 326 327 329 329 329 330 331 334 337 341 342 340 338 338 338 340 340 341 341 343 344 346 345 343 342 340 340 336 336 343 348
324 325 327 329 330 330 331 331 333 333 335 337 338 338 338 338 339 338 338 340 339 338 338 338 341 344 344 343 342 332 332 338 348
325 327 329 330 331 334 336 337 335 335 335 335 335 335 336 336 337 337 339 340 340 339 339 338 337 337 339 342 344 331 331 334 344
327 328 330 332 334 336 336 337 337 336 335 335 334 335 335 337 337 337 337 337 337 338 337 338 338 339 339 339 341 329 328 332 341
328 332 333 333 334 335 335 336 338 337 335 335 336 337 338 338 338 337 336 335 334 335 336 336 338 340 342 338 345 331 325 329 342
329 332 333 334 334 334 335 337 337 335 334 334 337 338 338 339 340 338 337 336 334 335 336 338 340 340 340 345 344 344 324 320 341
329 329 330 331 331 333 332 335 336 334 333 337 337 338 338 337 337 338 340 338 339 339 340 339 339 339 339 344 345 326 322 320 319
327 327 326 326 327 325 325 327 333 332 334 334 334 335 334 333 334 336 336 337 337 336 335 334 336 335 336 337 336 334 321 318 318
323 324 323 322 323 323 326 328 327 328 331 334 333 332 330 330 331 332 336 330 328 332 331 330 330 331 332 334 336 334 333 331 330
321 318 318 319 319 321 323 328 328 329 331 332 331 331 330 329 329 331 331 318 314 318 320 317 324 324 324 324 327 327 308 310 326
318 317 317 318 320 322 324 326 329 330 330 331 330 329 328 327 326 331 327 319 315 305 304 302 300 299 304 315 309 305 303 300 301
315 317 319 321 322 323 326 327 328 328 329 328 328 327 327 327 323 329 328 322 317 318 312 301 299 298 298 297 300 299 298 298 300
Wind_Speed
10 12 12 13 13 12 13 12 11 11 10 10 10 10 10 7 6 4 4 5 4 4 3 4 4 5 5 6 5 4 3 2 3
12 13 13 14 11 11 11 9 10 11 10 10 10 12 8 8 6 6 6 7 5 4 4 4 5 6 5 5 5 5 5 4 3
7 7 8 9 9 10 9 6 6 7 6 9 7 8 8 7 8 7 6 5 6 5 4 5 5 6 5 6 6 5 5 3 3
9 10 11 10 10 10 10 9 6 7 8 7 7 7 6 7 8 8 6 6 6 6 4 5 5 5 5 6 5 5 4 4 4
6 8 10 10 10 8 6 7 8 8 7 8 8 8 7 8 7 6 6 7 7 6 6 5 6 4 4 4 5 5 6 6 6
6 6 8 7 8 10 10 10 9 9 9 9 7 6 7 7 7 8 9 9 8 7 7 6 5 5 6 6 6 5 6 6 6
6 6 7 6 6 7 7 9 8 8 8 6 6 5 5 5 6 5 6 6 5 6 7 7 7 7 7 6 5 6 6 7 7
6 5 6 7 6 6 6 7 8 7 7 6 6 7 7 6 4 5 4 5 5 6 6 8 8 8 7 6 6 7 7 7 8
5 5 6 6 5 6 7 8 7 7 7 7 6 6 7 4 5 3 4 4 2 3 3 4 6 7 8 8 7 8 12 9 8
8 7 7 7 7 6 6 6 6 7 6 5 5 4 4 4 4 5 5 4 5 3 2 2 4 5 5 7 8 11 11 13 8
9 8 7 7 6 4 4 4 4 5 5 5 5 4 4 4 4 4 4 5 4 4 4 6 5 7 7 7 8 12 14 14 9
9 7 7 5 6 4 4 6 5 5 4 4 4 5 5 4 4 4 4 5 5 6 5 7 8 7 8 8 9 13 13 10 7
7 7 6 8 7 5 5 5 6 6 6 5 5 5 5 3 3 4 4 5 5 4 4 6 5 8 9 9 9 10 12 10 6
8 7 9 7 6 7 7 6 6 6 6 7 6 4 3 3 3 4 4 4 3 3 5 6 8 9 7 7 7 7 7 6 6
12 12 10 8 6 6 5 5 5 4 6 1 3 3 3 2 2 2 2 4 4 4 3 4 5 6 5 3 3 3 6 6 7
10 13 10 6 7 7 3 4 5 6 5 5 4 4 3 2 2 2 2 3 3 3 1 1 2 2 3 2 2 2 6 3 2
11 9 8 5 6 4 2 0 4 5 3 4 6 5 4 3 2 3 2 2 3 3 2 1 1 2 3 3 3 3 2 3 2
10 8 6 6 7 5 4 1 1 1 3 4 4 3 1 2 2 3 2 1 2 3 2 2 2 2 2 3 4 1 2 3 3
11 10 7 6 6 6 5 4 2 3 3 4 3 1 1 1 2 3 2 2 2 3 4 5 6 6 4 3 8 9 8 8 9
7 7 8 8 9 7 5 4 3 1 0 2 2 3 2 1 2 4 3 3 3 3 3 5 5 3 7 9 12 7 7 8 6
Wind_Direction
174 180 180 185 182 178 182 178 173 181 186 194 180 189 192 193 191 185 195 197 201 223 209 224 198 200 200 198 208 214 226 239 263
178 184 184 187 179 175 174 170 176 184 187 199 184 194 193 191 187 194 196 204 194 210 235 246 224 201 203 215 205 204 199 212 221
185 190 177 175 179 177 179 175 162 174 189 203 186 184 189 200 195 200 194 182 215 209 236 237 234 212 211 215 216 213 197 216 230
180 178 182 178 183 179 193 177 170 187 178 178 182 188 185 192 196 202 192 198 206 202 212 225 229 222 215 225 223 212 204 214 218
185 172 175 181 179 162 174 180 177 182 180 188 195 190 185 198 184 183 196 207 216 210 200 212 228 226 227 238 234 200 214 214 212
176 161 151 166 157 177 186 181 182 184 188 198 192 177 189 197 197 187 206 209 212 206 207 214 223 218 227 223 232 225 217 216 221
160 169 163 173 182 181 174 185 178 177 193 191 175 178 180 189 208 208 198 204 202 211 213 215 210 212 226 229 224 229 226 224 223
152 180 187 187 194 180 170 177 179 190 202 196 178 183 192 204 166 194 219 221 203 204 219 231 218 212 219 230 223 232 220 219 224
176 204 209 194 185 181 184 184 180 184 190 193 180 197 212 157 165 195 230 220 234 251 220 240 234 217 212 219 232 232 227 214 217
184 197 203 181 185 188 186 191 173 179 168 151 179 198 204 199 188 190 197 198 206 215 247 233 253 237 229 234 232 223 232 231 232
188 181 181 181 168 178 157 136 152 135 142 160 170 190 200 202 215 233 218 212 218 211 211 222 217 234 225 221 236 230 222 228 230
185 177 175 177 142 145 139 128 124 120 132 148 173 206 215 210 204 224 219 227 227 229 218 225 233 233 236 235 242 223 228 220 216
153 154 146 152 146 126 139 150 140 142 155 161 194 209 222 191 195 231 230 230 242 229 225 240 232 241 233 234 251 243 223 206 225
159 150 143 133 150 162 172 158 153 176 161 200 204 180 175 220 215 231 255 275 225 239 232 244 251 245 238 230 232 253 243 200 209
149 140 136 143 143 159 163 158 154 174 212 184 171 179 190 203 264 286 275 259 279 275 271 277 284 273 253 237 214 159 113 116 215
141 138 134 149 152 161 136 157 180 194 232 159 150 147 173 221 282 273 291 279 259 257 253 298 313 309 317 299 262 228 124 118 317
131 134 144 135 131 123 179 165 184 220 179 171 158 171 183 183 236 276 226 314 318 279 253 265 250 289 299 305 296 309 26 41 14
140 135 127 133 141 155 197 216 302 92 154 142 143 140 114 313 297 270 252 109 325 318 357 337 311 300 306 309 299 24 9 321 298
147 142 138 139 154 170 183 188 166 129 131 143 145 196 250 282 303 274 224 203 210 218 247 304 290 291 247 268 249 292 313 305 275
125 133 142 160 179 159 150 172 189 162 115 154 178 225 254 260 259 270 241 205 209 254 211 225 225 272 279 233 258 277 302 278 257